Regional Weather Roundup
Issued by NWS

Home | Current Version | Previous Version | Graphics & Text | Print | Product List | Glossary Off
Versions: 1 2 3 4 5 6 7 8 9 10 11 12 13 14 15 16 17 18 19 20 21 22 23 24 25 26 27 28 29 30 31 32 33 34 35 36 37 38 39 40 41 42 43 44 45 46 47 48 49 50

000
ASUS43 KLOT 231308
RWRIL

ILLINOIS REGIONAL WEATHER ROUNDUP
NATIONAL WEATHER SERVICE CHICAGO/ROMEOVILLE IL
800 AM CDT SAT MAY 23 2015

NOTE: "FAIR" INDICATES FEW OR NO CLOUDS BELOW 12,000 FEET WITH NO
SIGNIFICANT WEATHER AND/OR OBSTRUCTIONS TO VISIBILITY.

* THESE STATIONS ARE NOT UNDER NWS QUALITY CONTROL. THEY ALSO MAY NOT
  REPORT WEATHER SUCH AS PRECIPITATION OR FOG.

ILZ001-002-007-009-015-016-024-231400-
NORTHWEST ILLINOIS

CITY           SKY/WX    TMP DP  RH WIND       PRES   REMARKS
MOLINE         SUNNY     61  48  62 CALM      30.29S
STERLING*      PTSUNNY   61  39  44 SE9       30.32R
SAVANNA*       PTSUNNY   61  39  44 SE7       30.30S
$$

ILZ003-004-008-010-011-017-018-231400-
NORTH CENTRAL ILLINOIS

CITY           SKY/WX    TMP DP  RH WIND       PRES   REMARKS
ROCKFORD       PTSUNNY   61  38  42 S9        30.34S
FREEPORT*      PTSUNNY   59  39  48 SE10      30.33S
ROCHELLE*      CLOUDY    59  37  43 SE9       30.33S
DE KALB*       PTSUNNY   59  37  44 S14       30.34S
PERU*          MOSUNNY   60  39  46 SE8       30.33S
$$

ILZ005-006-012>014-019>023-231400-
NORTHEAST ILLINOIS

CITY           SKY/WX    TMP DP  RH WIND       PRES   REMARKS
CHICAGO-OHARE  MOSUNNY   59  36  42 SE6       30.34S
CHICAGO-MIDWAY MOSUNNY   61  35  37 S6        30.34S
AURORA         MOSUNNY   60  37  42 SE9       30.34F
LANSING*       SUNNY     60  36  40 SE6       30.35F
JOLIET*        MOSUNNY   62  41  46 SE6       30.34F
WAUKEGAN       SUNNY     58  37  45 S7        30.34S
DUPAGE AIRPORT MOSUNNY   59  36  42 SE9       30.33S
KANKAKEE*      MOSUNNY   61  41  47 E12       30.35S
WHEELING       SUNNY     57  39  51 SE5       30.36S
MORRIS*        MOSUNNY   61  38  42 SE8       30.32R
ROMEOVILLE*    MOSUNNY   60  37  42 S8        30.34S
NORTHERLY ISL    N/A     58  42  55 S2          N/A
$$

LMZ740>746-231400-
SOUTHERN LAKE MICHIGAN

STATION/POSITION SKY/WX   TEMP    WIND        PRES    VSBY  WAVE
                          AIR SEA DIR/SP/G                  HT/PER
                          (F)     (DEG/KT/KT) (MB)    (MI)  (FT/S)
SOUTHERN BUOY              41 38  200/  6/  8 1028.6R         0
HARRISON CRIB              54     160/ 10/ 11   N/A
BURNHAM HARBOR             57     150/  4/  5   N/A
CALUMET HARBOR             57     140/  6/  7   N/A
BURNS HARBOR               57     150/  9/ 12 1028.4R
MICHIGAN CITY              57     120/ 10/ 12   N/A
MICHIGAN CITY 6N           56 51  170/ 10/ 12   N/A           1
ST. JOSEPH                 56 53  190/  8/  8   N/A           1
$$

ILZ025>027-034>036-040-047-049-050-058-095>099-231400-
WEST-CENTRAL ILLINOIS

CITY           SKY/WX    TMP DP  RH WIND       PRES   REMARKS
QUINCY         PTSUNNY   65  51  60 SE5       30.31R
GALESBURG*     SUNNY     63  55  76 S7        30.31R
MACOMB*        SUNNY     62  55  79 CALM      30.33S
JACKSONVILLE*  MOSUNNY   66  57  71 S6        30.33R
PITTSFIELD*    MOSUNNY   63  53  69 SE3       30.33S
$$

ILZ028>032-037-038-041>044-048-051>054-059>061-231400-
CENTRAL ILLINOIS

CITY           SKY/WX    TMP DP  RH WIND       PRES   REMARKS
PONTIAC        MOSUNNY   62  42  48 SE12      30.34S
BLOOMINGTON    MOSUNNY   64  48  56 S5        30.34R
DECATUR        MOSUNNY   66  54  65 SW3       30.33S
PEORIA         SUNNY     65  47  52 CALM      30.32R
LACON*         SUNNY     63  43  48 SE3       30.31S
LINCOLN*       SUNNY     66  55  66 S5        30.31R
SPRINGFIELD    MOSUNNY   67  56  67 S6        30.33R
TAYLORVILLE    MOSUNNY   63  57  82 CALM      30.33S
$$

ILZ033-039-045-046-055>057-062-063-231400-
EAST-CENTRAL ILLINOIS

CITY           SKY/WX    TMP DP  RH WIND       PRES   REMARKS
CHAMPAIGN      MOSUNNY   68  51  54 S6        30.33S
DANVILLE*      SUNNY     62  45  53 SE7       30.33R
RANTOUL*       SUNNY     65  48  53 SE5       30.34R
MATTOON        PTSUNNY   65  56  72 CALM      30.34R
PARIS*         MOSUNNY   65  54  67 SE5       30.36R
$$

ILZ079-100>102-231400-
SOUTHWEST ILLINOIS

CITY           SKY/WX    TMP DP  RH WIND       PRES   REMARKS
ALTON          PTSUNNY   64  61  88 CALM      30.33R
BELLEVILLE     PTSUNNY   64  59  82 VRB1      30.31S
CAHOKIA*       CLOUDY    67  55  65 SE3       30.32R
SPARTA*        PTSUNNY   64  56  73 SE5       30.33S
$$

ILZ064>066-069>071-074>076-080>082-084>086-088>090-092>094-231400-
SOUTH-CENTRAL ILLINOIS

CITY           SKY/WX    TMP DP  RH WIND       PRES   REMARKS
CARBONDALE     CLOUDY    64  55  72 SE6       30.32F
CAIRO*         PTSUNNY   64  54  69 E6        30.33R
EFFINGHAM*     CLOUDY    64  53  68 CALM      30.36R
MARION         PTSUNNY   66  55  68 SE6       30.34S
MT. VERNON     MOSUNNY   63  55  77 CALM      30.34F
CENTRALIA*     PTSUNNY   71  55  57 CALM      30.33S
SALEM*         CLOUDY    65  57  75 CALM      30.35R
METROPOLIS*    CLOUDY    62  56  80 CALM      30.33S
$$

ILZ067-068-072-073-078-083-087-091-231400-
SOUTHEAST ILLINOIS

CITY           SKY/WX    TMP DP  RH WIND       PRES   REMARKS
LAWRENCEVILLE  CLOUDY    63  56  78 CALM      30.36R
FLORA*         PTSUNNY   64  55  71 CALM      30.35S
FAIRFIELD*     CLOUDY    63  56  78 CALM      30.34S
HARRISBURG*    PTSUNNY   62  59  90 SE3       30.35S
ROBINSON*      PTSUNNY   62  56  80 SE3       30.36R
CARMI*         CLOUDY    63  55  75 SE5       30.35S
$$

ABBREVIATIONS USED IN REMARKS
   TC - TEMPERATURE IN CELSIUS
  WCI - WIND CHILL INDEX
   HX - HEAT INDEX
  VSB - VISIBILITY
$$




USA.gov is the U.S. government's official web portal to all federal, state and local government web resources and services.